Showing default

SHIYAN 27E, 63603

Orbit data source: Space-Track

SHIYAN 27E, 63603 is a payload satellite owned by CAST (CN) in SSO that was launched on Fri, 18 Apr 2025 UTC via a CHANG ZHENG 6A launch vehicle from the Taiyaun Space Center, China (TSC). Payload-class satellites include a variety of spacecraft equipped with specific instruments for various scientific and technological missions. These include communications satellites like Starlink; space stations such as the ISS; scientific satellites like the Hubble; Earth observation satellites from companies like Planet Labs, Umbra, and HawkEye 360; GPS; miniature CubeSats for education and research; and military/defense satellites.

Loading next visibility...
Identifier
63603, 2025-078E
Orbit
SSO
Country
Flag of CNCN / PRC
Related business
Manufacturer
CAST
Mission
Operational Defense Radar Imaging
Bus & Motor
SW27, Unknown motor
Mass
300 kg wet, ~300 kg dry
Launch date (UTC)
2025-04-18 (1 year ago)
Launch vehicle
CHANG ZHENG 6A
Launch site
Taiyaun Space Center, China (TSC)
Object type
Payload
Rocket body
Debris
Shape & HBR
Box + 1 Pan, 2.1 m
Radar Cross Section
13.200 m², Large (>1 m²)

Expand to show TLE details & history
Last TLE update: 8 hours ago

TLE from 8 hours ago
0 SHIYAN 27E
1 63603U 25078E   26171.51391985  .00000013  00000-0  79630-4 0  9991
2 63603  99.6889 178.6143 0001102  83.8639 276.2625 13.57242219 57985
Epoch: 2026-06-20T12:20Z
TLE epoch observation values (Epoch: 2026-06-20T12:20:02.675Z)
Latitude
0.00001°
Longitude
84.8757°
Altitude
1,048.438 km
Speed
7.328 km/s
True Right ascension
11h 54m 27s
True Declination
0° 00' 00"
Sunlit
Object was in daylight at epoch
Visualization orbit readout
Latitude
Unknown
Longitude
Unknown
Altitude
Unknown
Speed
Unknown
Apparent Right ascension
Unknown
Apparent Declination
Unknown
Sunlit
N/A
Visualization observer readout
Local Sidereal Time
07:22:39
Azimuth
Unknown
Elevation
Unknown
Doppler factor
Unknown
Orbital elements
Apogee altitude
1,043.84 km
Perigee altitude
1,042.205 km
Semi-major axis
7,421.16 km
Eccentricity
0.00011
Inclination
99.6889°
RAAN
178.6143°
Arg. of periapsis
83.8639°
True anomaly
276.24995°
Mean anomaly
276.2625°
Eccentric anomaly
276.25622°
Mean motion
3.39497 °/min
Orbital period
106.04 mins
BSTAR
0.00007963
Loading maneuver chart data...
Computing Atmospheric mass density...
Loading historical data...
Loading historical data...
Loading historical data...
Loading historical data...
Loading historical data...
Loading historical data...
Loading historical data...

Documentation

Showing up to 5 results
|